SCP
0 0 0 0 0 0 0 0 0 0 0 0 0 0 0 0 0 0 0 0 0 0 0 0 0 0 0 1 1 1 1 1 1 1 1 1 0 0 0 0 0 0 0 0
0 0 0 0 0 0 0 0 0 0 0 0 0 0 0 0 0 0 0 0 0 0 0 0 0 0 1 1 1 1 1 1 1 1 1 1 1 0 0 0 0 0 0 0
0 0 0 0 0 0 0 0 0 0 0 0 0 0 0 0 0 0 0 0 0 0 0 0 0 1 1 1 1 1 1 1 1 1 1 1 1 1 0 0 0 0 0 0
0 0 0 0 0 0 0 0 0 0 0 0 0 0 0 0 0 0 0 0 0 0 0 0 0 0 0 0 1 1 1 1 1 1 1 1 1 1 1 1 0 0 0 0
0 0 0 0 0 0 0 0 0 0 0 0 0 0 0 0 0 0 0 0 0 0 0 0 0 0 0 0 1 1 1 1 1 1 1 1 1 1 1 1 1 0 0 0
0 0 0 0 0 0 0 0 0 0 0 0 0 0 0 0 0 0 0 0 0 0 0 0 0 0 0 0 1 1 1 1 1 1 1 1 1 1 1 1 1 0 0 0
0 0 0 0 0 0 0 0 0 0 0 0 0 0 0 0 0 0 0 0 0 0 0 0 0 0 1 1 1 1 1 1 1 1 1 1 1 1 1 1 1 0 0 0
0 0 0 0 0 0 0 0 0 0 0 0 0 0 0 0 0 0 0 0 0 0 0 0 0 1 1 1 1 1 1 1 1 1 1 1 1 1 1 1 1 1 0 0
0 0 0 0 0 0 0 0 0 0 0 0 0 0 0 0 0 0 0 0 0 0 1 1 1 1 1 1 1 1 1 1 1 1 1 1 1 1 1 1 1 1 0 0
0 0 0 0 0 0 0 0 0 0 0 0 0 0 0 0 0 0 0 0 0 1 1 1 1 1 1 1 1 1 1 1 1 1 1 1 1 1 1 1 1 1 0 0
0 0 0 0 0 0 0 0 0 0 0 0 0 0 0 0 0 0 0 0 1 1 1 1 1 1 1 1 1 1 1 1 1 1 1 1 1 1 1 1 1 1 0 0
0 0 0 0 0 0 0 0 0 0 0 0 0 0 0 0 0 0 0 0 1 1 1 1 1 1 1 1 1 1 1 1 1 1 1 1 1 1 1 1 1 1 1 0
0 0 0 0 0 0 0 0 0 0 0 0 0 0 0 0 0 0 0 1 1 1 1 1 1 1 1 1 1 1 1 1 1 1 1 1 1 1 1 1 1 1 1 0
0 0 0 0 0 0 0 0 0 0 0 0 0 0 0 0 0 0 0 1 1 1 1 1 1 1 1 1 1 1 1 1 1 1 1 1 1 1 1 1 1 1 1 0
0 0 0 0 0 0 0 0 0 0 0 0 0 0 0 0 0 0 0 0 0 0 0 0 1 1 1 1 1 1 1 1 1 1 1 1 1 1 1 1 1 1 1 1
0 0 0 0 0 0 0 0 0 0 0 0 0 0 0 0 0 0 0 0 0 0 0 0 0 0 0 0 0 0 0 1 1 1 1 0 1 1 1 1 1 1 1 1
0 0 0 0 0 0 0 0 0 0 0 0 0 0 0 0 0 0 0 0 0 0 0 0 0 0 1 1 1 1 0 1 1 0 0 0 0 1 1 1 1 1 1 1
0 0 0 0 0 0 0 0 0 0 0 0 0 0 0 0 0 0 0 0 0 0 0 0 0 1 1 1 1 1 1 1 1 0 0 0 0 0 1 1 1 1 1 1
0 0 0 0 0 0 0 0 0 0 0 0 0 0 0 0 0 0 0 0 0 0 0 0 0 1 1 1 1 1 1 1 1 0 0 0 0 0 1 1 1 1 1 1
0 0 0 0 0 0 0 0 0 0 0 0 0 0 0 0 0 0 0 0 0 0 0 0 0 1 1 1 1 1 1 1 0 0 0 0 0 0 1 1 1 1 1 1
0 0 0 0 0 0 0 0 0 0 0 0 0 0 0 0 0 0 0 0 0 0 0 0 0 1 1 1 1 1 1 1 0 0 0 0 0 1 1 1 1 1 1 1
0 0 0 0 0 0 0 0 0 0 0 0 0 0 0 0 0 0 0 0 0 0 0 0 0 0 0 0 0 0 1 0 0 0 0 0 0 1 1 1 1 1 1 1
0 0 0 0 0 0 0 0 0 0 0 0 0 0 0 0 0 0 0 0 0 0 0 0 0 0 0 0 0 0 0 0 0 0 0 0 0 0 1 1 1 1 1 1
0 0 0 0 0 0 0 0 0 0 0 0 0 0 0 0 0 0 0 0 0 0 0 0 0 0 0 0 0 0 0 0 0 0 0 0 0 0 0 0 0 0 1 1
0 0 0 0 0 0 0 0 0 0 0 0 0 0 0 0 0 0 0 0 0 0 0 0 0 0 0 0 0 0 0 0 0 0 0 0 0 0 0 0 0 0 0 0
0 0 0 0 0 0 0 0 0 0 0 0 0 0 0 0 0 0 0 0 0 0 0 0 0 0 0 0 0 0 0 0 0 0 0 0 0 0 0 0 0 0 0 0
Wind_Speed
8 9 9 8 8 8 6 8 7 5 2 6 7 6 5 4 5 5 5 6 5 5 5 5 6 7 7 7 7 8 9 8 7 6 6 5 5 4 3 3 3 2 2 3
9 10 7 6 6 8 9 10 8 6 3 6 7 8 6 5 5 5 5 5 6 5 5 5 5 6 7 7 7 8 8 8 8 6 5 4 4 4 3 2 3 2 2 3
11 3 5 8 8 10 10 10 8 7 5 8 9 10 8 6 5 5 5 5 5 5 5 5 5 5 6 7 7 6 7 7 7 7 6 5 4 4 4 3 3 2 3 3
8 5 6 9 9 10 10 7 9 9 9 8 8 9 7 7 6 6 6 5 5 4 4 5 5 5 5 6 7 6 6 7 7 7 7 7 6 5 4 3 3 3 3 3
6 7 8 9 8 9 8 5 8 10 11 12 10 11 6 6 7 7 6 5 4 4 4 4 4 5 5 5 5 6 6 6 7 7 7 7 6 5 4 4 4 3 3 3
6 4 6 7 7 8 7 7 8 10 11 14 11 11 7 5 5 4 5 4 3 3 4 4 3 4 4 5 5 5 6 6 6 7 7 7 6 5 5 5 5 4 4 3
9 9 6 6 8 9 9 9 8 10 11 10 5 9 6 2 2 3 3 4 3 3 3 4 4 3 4 5 5 5 5 6 6 7 7 7 7 7 6 6 5 4 4 3
9 9 9 7 9 7 10 12 10 9 10 7 6 8 4 3 2 2 3 3 3 3 2 3 3 4 4 4 5 5 5 5 5 6 6 6 7 6 5 5 4 4 3 3
6 5 4 5 7 9 10 11 11 13 14 12 7 6 5 5 5 4 3 2 2 2 2 2 2 3 4 4 4 5 5 5 4 5 6 6 6 5 4 5 5 4 3 3
5 5 4 4 7 8 10 8 8 11 11 13 10 10 7 6 5 4 4 3 2 1 1 1 2 3 3 4 4 5 5 5 5 5 5 5 6 5 5 5 4 4 4 3
5 7 5 7 8 8 8 9 10 10 10 11 10 5 3 1 1 2 2 1 1 1 2 2 2 2 3 3 4 5 4 4 4 4 4 5 6 7 7 6 6 5 5 5
3 6 7 7 4 5 8 9 9 9 10 11 11 4 5 3 3 3 2 1 0 1 2 2 2 3 3 3 3 4 4 4 4 4 5 5 5 6 6 6 6 6 5 5
2 5 8 8 9 8 8 7 8 9 9 10 12 5 4 2 2 3 2 1 1 1 2 2 2 2 2 2 2 3 3 3 3 3 4 4 5 5 6 6 6 6 6 6
4 6 9 10 6 4 7 8 9 11 10 11 12 9 4 4 4 4 3 1 0 1 2 2 1 1 1 0 1 2 2 2 3 3 3 4 4 5 6 6 6 6 6 6
5 7 8 8 7 8 9 9 9 11 12 12 10 9 7 7 6 5 3 1 1 1 2 2 1 1 1 1 1 1 1 2 2 3 3 3 3 4 5 5 6 6 6 6
4 6 7 8 7 7 8 8 9 9 9 10 10 8 6 5 5 4 3 2 2 2 2 2 1 1 1 2 2 2 2 1 2 2 3 3 3 4 4 5 6 6 6 6
5 6 7 8 6 8 9 7 7 7 7 8 8 6 5 6 6 5 4 3 3 2 2 2 2 1 2 2 2 2 2 2 2 3 3 3 3 4 4 5 6 6 6 6
6 7 6 6 6 9 1 2 2 5 6 5 6 6 6 6 5 5 3 3 2 2 2 2 2 2 2 2 2 2 3 3 3 3 3 3 3 3 3 4 5 6 5 5
5 6 6 6 8 6 2 0 2 5 5 3 4 5 5 4 4 2 3 2 2 2 2 2 2 2 2 2 2 3 3 3 3 3 3 3 3 3 3 4 4 5 5 5
5 6 7 6 8 6 1 3 3 5 5 2 4 6 6 6 5 2 4 3 3 2 2 2 1 1 1 2 2 3 4 3 3 3 3 3 3 3 4 4 4 3 4 5
5 6 7 8 7 3 3 2 3 5 3 5 5 6 6 6 6 5 4 4 3 3 2 2 1 1 1 1 2 3 3 3 3 3 3 3 3 4 4 4 3 3 4 4
4 4 5 5 6 2 4 1 2 4 4 4 5 5 5 4 4 4 4 3 3 2 2 2 1 1 1 1 2 2 2 2 2 3 3 3 3 4 3 4 3 4 4 5
2 3 3 3 2 3 2 2 3 4 4 4 5 5 4 4 4 5 4 3 3 2 2 2 2 1 1 1 2 2 2 2 3 3 3 3 3 3 3 3 3 4 4 4
2 2 3 3 1 1 2 2 3 3 4 4 4 4 4 4 5 5 4 4 3 3 3 2 2 1 1 1 1 2 1 2 2 3 3 3 3 3 3 3 3 3 3 4
3 2 3 4 3 3 2 2 3 3 3 3 3 4 4 5 5 5 4 4 3 3 3 3 2 2 2 1 2 2 1 1 2 3 3 3 3 3 3 3 2 3 2 1
3 4 4 3 3 3 3 3 4 3 3 3 4 4 4 4 5 5 4 4 4 3 3 3 3 2 2 1 2 2 1 1 2 3 3 3 3 2 3 2 2 1 1 1
Wind_Direction
196 217 216 217 232 266 271 259 250 245 230 255 251 253 245 237 242 225 207 198 194 192 179 173 175 175 175 172 174 181 183 175 178 180 181 179 177 173 165 157 145 153 166 165
202 218 226 233 228 242 248 249 246 235 215 264 259 258 245 226 228 227 218 204 200 194 176 169 172 174 179 177 179 181 184 180 185 181 183 182 180 172 162 158 141 164 171 182
224 208 213 223 222 234 240 252 259 260 254 238 255 245 218 207 210 210 215 216 204 198 191 182 182 183 184 184 183 185 187 183 187 182 180 174 174 179 171 172 165 176 173 168
229 216 213 222 228 241 244 247 261 256 255 247 238 262 208 197 203 207 208 208 203 195 194 189 187 185 189 189 182 181 181 184 184 187 189 186 184 183 180 179 167 169 172 171
206 210 222 232 236 242 260 264 257 255 258 263 237 253 233 189 215 208 204 204 210 202 196 186 188 187 186 183 182 176 175 181 184 191 189 194 195 186 177 176 165 178 167 179
234 214 246 251 244 236 244 240 237 243 248 248 243 251 253 215 227 220 200 196 204 204 192 185 184 178 175 172 172 170 172 178 182 189 191 195 194 193 183 181 177 188 177 174
215 211 210 232 228 205 225 241 237 229 228 243 223 246 255 225 231 244 217 205 196 201 201 190 177 171 175 174 173 166 168 178 181 186 190 192 194 196 195 193 186 195 184 176
226 212 195 209 237 234 225 241 256 267 266 258 214 240 244 159 201 235 231 215 199 199 201 202 185 175 175 175 174 168 170 178 182 185 188 193 198 198 195 201 203 195 196 180
258 233 172 212 238 250 237 238 258 268 270 267 252 242 221 202 211 225 227 216 197 200 197 193 172 172 171 175 176 171 169 172 180 184 187 192 199 204 199 195 207 201 196 190
278 261 223 210 228 226 260 256 244 249 262 263 251 245 243 212 222 226 235 235 208 197 175 159 154 155 165 170 170 169 171 175 180 186 193 188 191 191 201 212 202 208 206 201
263 256 230 218 233 238 218 227 242 255 262 269 268 258 27 6 317 286 275 271 222 204 172 159 152 148 157 164 167 165 170 178 184 191 198 195 195 194 198 205 207 203 205 205
242 266 260 244 238 269 255 250 243 251 252 254 267 268 72 50 8 341 328 332 351 183 157 148 141 141 149 159 171 169 174 183 191 196 198 196 202 203 203 205 209 207 206 210
220 244 251 228 203 203 230 236 244 253 260 258 260 251 104 57 355 348 329 325 45 129 150 142 133 136 153 169 176 175 187 190 192 196 200 201 208 209 209 209 210 211 211 214
261 252 264 277 295 274 242 240 244 250 254 259 260 270 296 316 322 332 327 303 184 167 175 169 157 133 114 131 187 188 203 204 202 200 204 213 217 218 216 213 212 214 215 218
252 252 255 270 279 271 265 258 253 253 263 267 274 282 301 315 322 323 314 286 250 252 229 212 196 156 152 169 183 197 221 219 211 208 209 218 223 224 220 212 211 211 213 218
246 265 262 255 252 256 255 257 254 255 265 268 274 279 307 323 320 307 284 264 254 263 265 255 229 192 196 201 208 211 219 220 227 224 223 222 225 225 220 213 209 210 212 216
239 246 258 254 251 256 247 248 252 256 266 273 279 299 320 311 311 309 295 275 266 264 264 267 272 240 239 238 228 218 205 199 226 243 243 227 222 221 221 218 207 205 207 209
251 253 255 256 246 249 295 53 298 278 278 287 291 306 313 319 320 317 304 287 281 275 275 283 271 240 233 235 228 224 203 195 210 224 235 242 233 219 214 216 212 208 208 211
239 247 256 255 252 249 189 149 302 281 275 318 313 317 318 316 296 308 3 335 311 295 299 293 277 243 218 224 219 215 205 200 209 221 232 235 234 223 215 218 221 214 206 208
194 232 250 247 260 268 63 48 338 279 253 29 332 318 315 305 285 8 15 348 340 343 328 303 281 239 218 229 218 210 204 201 216 227 231 229 228 227 225 225 226 222 211 210
207 216 237 251 257 264 36 16 273 257 358 6 341 326 312 313 326 346 344 348 353 357 331 313 283 259 229 223 210 207 210 208 217 225 224 224 225 228 223 220 221 222 217 208
262 249 236 252 254 262 48 335 316 349 347 335 332 329 327 330 332 333 340 348 342 340 329 313 294 292 284 244 225 219 225 218 212 215 222 226 228 235 218 213 215 216 210 201
270 315 311 305 329 28 22 347 342 326 320 327 328 331 328 321 322 327 329 330 327 330 334 315 301 306 304 276 259 246 236 221 214 222 225 225 230 230 222 216 217 218 212 216
206 258 259 251 248 320 325 331 338 329 324 331 334 331 326 324 326 323 325 327 325 326 316 305 294 299 311 308 299 279 246 220 217 234 240 236 235 228 213 219 223 229 230 227
305 261 254 252 264 267 281 324 330 330 332 334 335 334 329 326 326 325 323 322 315 309 300 290 283 290 290 296 305 301 283 230 226 233 237 237 238 237 226 223 233 246 253 272
269 269 273 295 316 299 305 311 314 310 316 320 321 326 326 325 322 321 320 314 302 295 295 284 277 270 265 261 285 293 271 230 224 224 230 237 231 225 228 225 212 116 208 139